Rochester, MN

6:55 AM CDT on April 21, 2018 (GMT -0500)
Rochester International

Weather History for KRST - October, 2011

Change the Weather History Date:

Friday, October 28, 2011

  Actual Average Record
Temperature  
Mean Temperature 42 °F 44 °F  
Max Temperature 55 °F 53 °F 72 °F (1945)
Min Temperature 29 °F 35 °F 11 °F (1909)
Degree Days  
Heating Degree Days 23 21  
Month to date heating degree days 321 453  
Since 1 July heating degree days 536 668  
Cooling Degree Days 0 0  
Month to date cooling degree days 26 4  
Year to date cooling degree days 706 583  
Moisture  
Dew Point 25 °F    
Average Humidity 54    
Maximum Humidity 78    
Minimum Humidity 30    
Precipitation  
Precipitation T in 0.06 in 0.64 in (1940)
Month to date precipitation 0.29 2.06  
Year to date precipitation 26.17 29.70  
Snow  
Snow 0.00 in 0.00 in 0.20 in (2015)
Month to date snowfall T 0.6  
Since 1 July snowfall T 0.6  
Snow Depth 0.00 in    
Sea Level Pressure  
Sea Level Pressure 30.08 in    
Wind  
Wind Speed 10 mph (WSW)    
Max Wind Speed 23 mph    
Max Gust Speed 26 mph    
Visibility 10 miles    
Events      
T = Trace of Precipitation, MM = Missing Value Source: NWS Daily Summary

Daily Weather History Graph

Daily Weather History Graph

Search for Another Location

Airport or City:

Astronomy

Oct. 28, 2011 Rise Set
Actual Time 7:40 AM CDT 6:06 PM CDT
Civil Twilight 7:10 AM CDT 6:35 PM CDT
Nautical Twilight 6:37 AM CDT 7:09 PM CDT
Astronomical Twilight 6:03 AM CDT 7:43 PM CDT
Moon 10:02 AM CDT (10/28) 7:23 PM CDT (10/28)
Length of Visible Light 11h 24m
Length of Day
10h 25m
Waxing Crescent, 5% of the Moon is Illuminated
Oct 28
Waxing Crescent
Nov 2
First Quarter
Nov 10
Full
Nov 18
Last Quarter
Nov 25
New

Hourly Weather History & Observations

Time (CDT) Temp. Windchill Dew Point Humidity Pressure Visibility Wind Dir Wind Speed Gust Speed Precip Events Conditions
12:54 AM 30.0 °F 24.1 °F 24.1 °F 79% 30.14 in 10.0 mi South 5.8 mph - N/A   Clear
1:54 AM 32.0 °F 25.6 °F 24.1 °F 73% 30.14 in 10.0 mi South 6.9 mph - N/A   Clear
2:54 AM 30.9 °F 22.8 °F 24.1 °F 76% 30.14 in 10.0 mi South 9.2 mph - N/A   Clear
3:54 AM 28.9 °F 21.1 °F 23.0 °F 78% 30.13 in 10.0 mi South 8.1 mph - N/A   Clear
4:54 AM 30.2 °F 22.6 °F 23.0 °F 75% 30.08 in 10.0 mi South 8.1 mph - N/A   Clear
5:54 AM 28.9 °F 21.1 °F 23.0 °F 78% 30.11 in 10.0 mi South 8.1 mph - N/A   Mostly Cloudy
6:54 AM 32.0 °F 25.6 °F 25.0 °F 75% 30.10 in 10.0 mi South 6.9 mph - N/A   Mostly Cloudy
7:54 AM 36.0 °F 29.6 °F 27.0 °F 70% 30.09 in 10.0 mi South 8.1 mph - N/A   Overcast
8:54 AM 37.9 °F 31.5 °F 28.0 °F 68% 30.08 in 10.0 mi South 9.2 mph - N/A   Overcast
9:54 AM 42.1 °F 36.6 °F 28.0 °F 58% 30.08 in 10.0 mi SSW 9.2 mph - N/A   Overcast
10:54 AM 43.0 °F 36.4 °F 27.0 °F 53% 30.09 in 10.0 mi West 12.7 mph - N/A   Mostly Cloudy
11:54 AM 46.0 °F 43.1 °F 28.0 °F 50% 30.08 in 10.0 mi Variable 5.8 mph - 0.00 in   Overcast
12:54 PM 50.0 °F - 28.0 °F 43% 30.07 in 10.0 mi West 12.7 mph - N/A   Overcast
1:54 PM 53.6 °F - 30.2 °F 41% 30.02 in 10.0 mi NW 17.3 mph - N/A   Clear
2:54 PM 53.1 °F - 28.0 °F 38% 30.04 in 10.0 mi NNW 12.7 mph 26.5 mph N/A   Partly Cloudy
3:54 PM 53.1 °F - 28.0 °F 38% 30.05 in 10.0 mi NW 12.7 mph - N/A   Partly Cloudy
4:54 PM 51.1 °F - 21.9 °F 32% 30.05 in 10.0 mi WNW 16.1 mph - N/A   Partly Cloudy
5:54 PM 46.9 °F - 21.9 °F 37% 30.06 in 10.0 mi NW 9.2 mph - N/A   Clear
6:54 PM 44.1 °F 40.1 °F 21.9 °F 42% 30.07 in 10.0 mi WNW 6.9 mph - N/A   Clear
7:54 PM 39.2 °F 34.2 °F 21.2 °F 49% 30.03 in 10.0 mi West 6.9 mph - N/A   Clear
8:54 PM 37.0 °F 31.0 °F 21.9 °F 54% 30.07 in 10.0 mi West 8.1 mph - N/A   Clear
9:54 PM 35.1 °F 28.6 °F 21.9 °F 59% 30.08 in 10.0 mi West 8.1 mph - N/A   Clear
10:54 PM 34.0 °F 27.2 °F 23.0 °F 64% 30.07 in 10.0 mi West 8.1 mph - N/A   Clear
11:54 PM 32.0 °F 24.2 °F 23.0 °F 69% 30.07 in 10.0 mi West 9.2 mph - N/A   Clear